Change the Weather History Date:

Tuesday, January 1, 2013

  Actual Average (LFOT) Record (LFOT)
Temperature  
Mean Temperature 42 °F -  
Max Temperature 51 °F 44 °F 57 °F (2003)
Min Temperature 30 °F 35 °F 14 °F (1997)
Degree Days  
Heating Degree Days 24    
Moisture  
Dew Point 42 °F    
Average Humidity 90    
Maximum Humidity 100    
Minimum Humidity 67    
Precipitation  
Precipitation 0.00 in - - ()
Sea Level Pressure  
Sea Level Pressure 29.88 in    
Wind  
Wind Speed 8 mph ()    
Max Wind Speed 16 mph    
Max Gust Speed -    
Averages and records for this station are not official NWS values.
T = Trace of Precipitation, MM = Missing Value Source: Averaged Metar Reports

Daily Weather History Graph

Daily Weather History Graph

Search for Another Location

Airport or City:

Trip Planner

Search our weather history database for the weather conditions in past years. The results will help you decide how hot, cold, wet, or windy it might be!

Date:

Astronomy

Jan. 01, 2013 Rise Set
Actual Time 8:40 AM CET 5:13 PM CET
Civil Twilight 8:04 AM CET 5:49 PM CET
Nautical Twilight 7:25 AM CET 6:28 PM CET
Astronomical Twilight 6:48 AM CET 7:05 PM CET
Moon 9:48 PM CET (1/1) 10:27 AM CET (1/1)
Length of Visible Light 9h 44m
Length of Day
8h 33m
Waning Gibbous, 85% of the Moon is Illuminated
Jan 1
Waning Gibbous
Jan 5
Last Quarter
Jan 11
New
Jan 19
First Quarter
Jan 27
Full

Hourly Weather History & Observations

Time (CET) Temp. Windchill Dew Point Humidity Pressure Visibility Wind Dir Wind Speed Gust Speed Precip Events Conditions
12:00 AM 48.2 °F - 42.8 °F 82% 29.80 in - SSW 15.0 mph - N/A   Unknown
1:00 AM 46.4 °F 40.1 °F 42.8 °F 87% 29.80 in - SSW 15.0 mph - N/A   Unknown
2:00 AM 46.4 °F 39.8 °F 44.6 °F 93% 29.77 in - SSW 16.1 mph - N/A   Unknown
3:00 AM 46.4 °F 40.1 °F 44.6 °F 93% 29.74 in - SSW 15.0 mph - N/A   Unknown
4:00 AM 46.4 °F 40.1 °F 44.6 °F 93% 29.74 in - SSW 15.0 mph - N/A   Unknown
5:00 AM 46.4 °F 42.4 °F 46.4 °F 100% 29.74 in - SW 8.1 mph - N/A   Unknown
6:00 AM 48.2 °F - 46.4 °F 93% 29.74 in - SW 9.2 mph - N/A   Unknown
7:00 AM 48.2 °F - 48.2 °F 100% 29.77 in - WSW 8.1 mph - N/A   Unknown
8:00 AM 48.2 °F - 48.2 °F 100% 29.80 in - WSW 5.8 mph - N/A   Unknown
9:00 AM 48.2 °F - 48.2 °F 100% 29.83 in - WSW 6.9 mph - N/A   Unknown
10:00 AM 48.2 °F - 48.2 °F 100% 29.83 in - WSW 5.8 mph - N/A   Unknown
11:00 AM 50.0 °F - 48.2 °F 94% 29.86 in - WSW 5.8 mph - N/A   Unknown
12:00 PM 50.0 °F - 46.4 °F 87% 29.89 in - West 8.1 mph - N/A   Unknown
1:00 PM 50.0 °F - 44.6 °F 82% 29.89 in - West 5.8 mph - N/A   Unknown
2:00 PM 51.8 °F - 41.0 °F 67% 29.89 in - WNW 9.2 mph - N/A   Unknown
3:00 PM 50.0 °F - 42.8 °F 76% 29.92 in - WNW 6.9 mph - N/A   Unknown
4:00 PM 48.2 °F - 42.8 °F 82% 29.95 in - West 3.5 mph - N/A   Unknown
5:00 PM 46.4 °F 43.5 °F 39.2 °F 76% 29.95 in - West 5.8 mph - N/A   Unknown
6:00 PM 44.6 °F 43.1 °F 39.2 °F 81% 29.98 in - West 3.5 mph - N/A   Unknown
7:00 PM 41.0 °F 39.0 °F 37.4 °F 87% 30.01 in - West 3.5 mph - N/A   Unknown
8:00 PM 37.4 °F - 35.6 °F 93% 30.04 in - Variable 2.3 mph - N/A   Unknown
9:00 PM 33.8 °F - 32.0 °F 93% 30.06 in - SSW 2.3 mph - N/A   Unknown
10:00 PM 32.0 °F - 32.0 °F 100% 30.09 in - Calm Calm - N/A   Unknown
11:00 PM 30.2 °F - 30.2 °F 100% 30.12 in - SW 1.2 mph - N/A   Unknown